SL-14 DEB, 45307

Orbit data source: Space-Track

SL-14 DEB, 45307 is space debris in LEO originally from a launch on Thu, 15 Aug 1991 UTC launched from the Plesetsk Missile And Space Complex (PKMTR). Debris objects in space refer to the collection of defunct objects orbiting the Earth. Examples of debris include non-operational satellites, rocket bodies, and fragments generated from explosions, collisions, or faulty payload assembly.

Loading next visibility...
Identifier
45307, 1991-056AV
Orbit
LEO
Country
Flag of CISCIS
Related business
Manufacturer
Unknown
Mission
Spacecraft
Bus & Motor
Unknown
Mass
Unknown
Launch date (UTC)
1991-08-15 (34 years ago)
Launch vehicle
Unknown
Launch site
Plesetsk Missile And Space Complex (PKMTR)
Object type
Payload
Rocket body
Debris
Shape & HBR
Unknown shape, 0.1 m
Radar Cross Section
Small (<0.1 m²)

Expand to show TLE details & history
Last TLE update: 8 hours ago

TLE from 8 hours ago
0 SL-14 DEB
1 45307U 91056AV  25291.25354296  .00006073  00000-0  17834-1 0  9995
2 45307  82.5820  11.2015 0160109  25.4901 335.4000 13.04232272266920
Epoch: 2025-10-18T06:05Z
TLE epoch observation values (Epoch: 2025-10-18T06:05:06.111Z)
Latitude
-0.00008°
Longitude
-107.06118°
Altitude
1,137.686 km
Speed
7.337 km/s
True Right ascension
00h 44m 48s
True Declination
0° 00' 00"
Sunlit
Object was in full shadow at epoch
Visualization orbit readout
Latitude
Unknown
Longitude
Unknown
Altitude
Unknown
Speed
Unknown
Apparent Right ascension
Unknown
Apparent Declination
Unknown
Sunlit
N/A
Visualization observer readout
Local Sidereal Time
09:14:44
Azimuth
Unknown
Elevation
Unknown
Doppler factor
Unknown
Orbital elements
Apogee altitude
1,364.831 km
Perigee altitude
1,120.795 km
Semi-major axis
7,620.95 km
Eccentricity
0.01601
Inclination
82.582°
RAAN
11.2015°
Arg. of periapsis
25.4901°
True anomaly
334.62212°
Mean anomaly
335.4°
Eccentric anomaly
335.01249°
Mean motion
3.26234 °/min
Orbital period
110.35 mins
BSTAR
0.017834
Loading maneuver chart data...
Computing Atmospheric mass density...
Loading historical data...
Loading historical data...
Loading historical data...
Loading historical data...
Loading historical data...
Loading historical data...
Loading historical data...

Documentation

Showing up to 5 results
|